Regional Weather Roundup
Issued by NWS

Home | Current Version | Previous Version | Graphics & Text | Print | Product List | Glossary On
Versions: 1 2 3 4 5 6 7 8 9 10 11 12 13 14 15 16 17 18 19 20 21 22 23 24 25 26 27 28 29 30 31 32 33 34 35 36
000
ASUS45 KBOI 212110
RWRID
WEATHER ROUNDUP FOR IDAHO
NATIONAL WEATHER SERVICE BOISE ID
300 PM MDT TUE OCT 21 2014

NOTE: "FAIR" INDICATES FEW OR NO CLOUDS BELOW 12000 FEET
WITH NO SIGNIFICANT WEATHER AND/OR OBSTRUCTIONS TO VISIBILITY

IDZ012-014-212200-
SOUTHWEST IDAHO


CITY           SKY/WX    TMP DP  RH WIND       PRES   REMARKS
BOISE          CLOUDY    57  39  51 NW6       30.04S
CALDWELL       PTSUNNY   63  36  36 W15       30.05S
MOUNTAIN HOME  MOSUNNY   58  38  47 W16G22    30.05S
$$

IDZ016-017-212200-
SOUTHCENTRAL IDAHO


CITY           SKY/WX    TMP DP  RH WIND       PRES   REMARKS
BURLEY         LGT RAIN  52  36  54 W17G29    30.04S
JEROME         MOSUNNY   51  38  60 W20       30.06R
TWIN FALLS     MOSUNNY   55  36  48 W26       30.05S
$$

IDZ019>023-212200-
SOUTHEAST IDAHO


CITY           SKY/WX    TMP DP  RH WIND       PRES   REMARKS
IDAHO FALLS    PTSUNNY   51  33  50 SW22G33   30.00R
POCATELLO      PTSUNNY   53  36  52 W22       30.04F
REXBURG        PTSUNNY   50  34  54 SW18G28   29.99F
$$

IDZ006-010-011-018-031-032-212200-
CENTRAL IDAHO MOUNTAINS


CITY           SKY/WX    TMP DP  RH WIND       PRES   REMARKS
MCCALL         CLOUDY    43  39  86 E8        30.01R
HAILEY         MOSUNNY   46  36  66 CALM      30.01F
STANLEY          N/A     41  35  79 CALM      30.03R
SALMON         CLOUDY    45  39  81 NE3       30.00R
CHALLIS        CLOUDY    48  35  60 S7        29.98S
$$

IDZ002-004-006-007-026-212200-
NORTHERN IDAHO


CITY           SKY/WX    TMP DP  RH WIND       PRES   REMARKS
LEWISTON       CLOUDY    62  42  47 VRB3      29.95S
LOWELL           N/A     52  49  89 VRB3      30.00R
COEUR D`ALENE  CLOUDY    55  41  58 W12G18    29.93S
MULLAN PASS    CLOUDY    35  34  96 VRB5      29.93R WCI  31
$$



USA.gov is the U.S. government's official web portal to all federal, state and local government web resources and services.